Change the Weather History Date:

Thursday, February 14, 2013

  Actual Average (KMIE) Record (KMIE)
Temperature  
Mean Temperature 38 °F 29 °F  
Max Temperature 62 °F 37 °F 65 °F (1990)
Min Temperature 31 °F 21 °F 0 °F (1986)
Degree Days  
Heating Degree Days 28 36  
Month to date heating degree days 519  
Since 1 July heating degree days 3912  
Cooling Degree Days 0 0  
Month to date cooling degree days 0  
Year to date cooling degree days 0  
Moisture  
Dew Point 31 °F    
Average Humidity 82    
Maximum Humidity 96    
Minimum Humidity 69    
Precipitation  
Precipitation 0.00 in 0.09 in 0.69 in (2005)
Month to date precipitation 1.17  
Year to date precipitation 3.40  
Sea Level Pressure  
Sea Level Pressure 29.84 in    
Wind  
Wind Speed 13 mph (WSW)    
Max Wind Speed 26 mph    
Max Gust Speed 32 mph    
Visibility 6 miles    
Events Snow    
T = Trace of Precipitation, MM = Missing Value Source: NWS Daily Summary

Daily Weather History Graph

Daily Weather History Graph

Search for Another Location

Airport or City:

Trip Planner

Search our weather history database for the weather conditions in past years. The results will help you decide how hot, cold, wet, or windy it might be!

Date:

Astronomy

Feb. 14, 2013 Rise Set
Actual Time 7:37 AM EST 6:17 PM EST
Civil Twilight 7:09 AM EST 6:45 PM EST
Nautical Twilight 6:37 AM EST 7:17 PM EST
Astronomical Twilight 6:05 AM EST 7:48 PM EST
Moon 9:37 AM EST (2/14) 11:20 PM EST (2/14)
Length of Visible Light 11h 35m
Length of Day
10h 39m
Waxing Crescent, 21% of the Moon is Illuminated
Feb 14
Waxing Crescent
Feb 17
First Quarter
Feb 25
Full
Mar 4
Last Quarter
Mar 11
New

Hourly Weather History & Observations

Time (EST) Temp. Windchill Dew Point Humidity Pressure Visibility Wind Dir Wind Speed Gust Speed Precip Events Conditions
12:15 AM 33.1 °F 25.5 °F 27.3 °F 79% 29.82 in 5.0 mi SSW 9.2 mph - N/A Snow Light Snow
12:35 AM 32.9 °F 24.7 °F 27.5 °F 81% 29.82 in 7.0 mi SW 10.4 mph - N/A   Clear
12:55 AM 32.9 °F 24.7 °F 27.9 °F 82% 29.82 in 10.0 mi SW 10.4 mph - N/A   Clear
1:15 AM 32.9 °F 24.7 °F 28.0 °F 82% 29.82 in 4.0 mi SSW 10.4 mph - N/A   Haze
1:35 AM 32.9 °F 24.7 °F 28.4 °F 84% 29.82 in 4.0 mi SSW 10.4 mph - N/A Snow Light Snow
1:55 AM 32.9 °F 24.7 °F 28.4 °F 84% 29.82 in 4.0 mi SSW 10.4 mph - N/A Snow Light Snow
2:15 AM 32.5 °F 24.2 °F 28.6 °F 85% 29.81 in 3.0 mi SSW 10.4 mph - N/A Snow Light Snow
2:35 AM 32.4 °F 24.0 °F 28.8 °F 87% 29.81 in 3.0 mi SSW 10.4 mph - N/A Snow Light Snow
2:55 AM 32.2 °F 23.8 °F 28.9 °F 88% 29.81 in 7.0 mi SSW 10.4 mph - N/A   Clear
3:15 AM 32.0 °F 24.2 °F 28.9 °F 88% 29.81 in 3.0 mi SSW 9.2 mph - N/A   Clear
3:35 AM 32.0 °F 24.8 °F 29.1 °F 89% 29.82 in 7.0 mi SSW 8.1 mph - N/A   Clear
3:55 AM 32.0 °F 24.8 °F 29.3 °F 90% 29.81 in 7.0 mi SSW 8.1 mph - N/A   Clear
4:15 AM 32.0 °F 25.6 °F 29.7 °F 91% 29.81 in 7.0 mi SSW 6.9 mph - N/A   Clear
4:35 AM 31.8 °F 26.2 °F 29.5 °F 91% 29.80 in 2.5 mi SSW 5.8 mph - N/A Snow Light Snow
4:55 AM 31.8 °F 24.6 °F 30.0 °F 93% 29.80 in 4.0 mi SSW 8.1 mph - N/A   Clear
5:15 AM 32.0 °F 23.6 °F 30.4 °F 94% 29.80 in 4.0 mi SSW 10.4 mph - N/A   Clear
5:35 AM 32.0 °F 24.2 °F 30.9 °F 96% 29.81 in 3.0 mi SSW 9.2 mph - N/A Snow Light Snow
5:55 AM 32.4 °F 25.3 °F 31.1 °F 95% 29.80 in 3.0 mi South 8.1 mph - N/A Snow Light Snow
6:15 AM 32.4 °F 24.0 °F 31.1 °F 95% 29.80 in 2.5 mi SSW 10.4 mph - N/A Snow Light Snow
6:35 AM 32.5 °F 23.7 °F 31.3 °F 95% 29.80 in 3.0 mi SSW 11.5 mph - N/A Snow Light Snow
6:55 AM 32.9 °F 24.7 °F 31.6 °F 95% 29.81 in 4.0 mi SSW 10.4 mph - N/A   Overcast
7:15 AM 32.9 °F 25.3 °F 31.8 °F 96% 29.81 in 4.0 mi South 9.2 mph - N/A   Overcast
7:35 AM 33.1 °F 24.4 °F 32.0 °F 96% 29.80 in 4.0 mi South 11.5 mph - N/A   Overcast
7:55 AM 33.3 °F 24.1 °F 32.0 °F 95% 29.80 in 4.0 mi South 12.7 mph 17.3 mph N/A   Overcast
8:15 AM 33.6 °F 24.1 °F 32.0 °F 94% 29.79 in 4.0 mi South 13.8 mph - N/A   Overcast
8:35 AM 33.8 °F 23.9 °F 32.0 °F 93% 29.79 in 3.0 mi South 15.0 mph 19.6 mph N/A   Mostly Cloudy
8:55 AM 33.8 °F 24.3 °F 32.0 °F 93% 29.79 in 4.0 mi South 13.8 mph - N/A   Overcast
9:15 AM 34.0 °F 24.6 °F 32.0 °F 92% 29.79 in 4.0 mi South 13.8 mph 19.6 mph N/A   Overcast
9:35 AM 34.5 °F 24.8 °F 32.2 °F 91% 29.79 in 5.0 mi South 15.0 mph 19.6 mph N/A   Overcast
9:55 AM 35.1 °F 25.5 °F 32.2 °F 89% 29.79 in 5.0 mi SSW 15.0 mph - N/A   Overcast
10:15 AM 35.2 °F 23.8 °F 32.2 °F 89% 29.79 in 5.0 mi SSW 21.9 mph - N/A   Overcast
10:35 AM 35.8 °F 25.1 °F 32.5 °F 88% 29.79 in 7.0 mi SSW 19.6 mph - N/A   Overcast
10:55 AM 36.9 °F 26.8 °F 32.9 °F 86% 29.78 in 7.0 mi SSW 18.4 mph 23.0 mph N/A   Overcast
11:15 AM 37.9 °F 27.9 °F 33.3 °F 83% 29.78 in 4.0 mi SSW 19.6 mph 24.2 mph N/A   Haze
11:35 AM 39.2 °F 30.5 °F 34.0 °F 82% 29.79 in 3.0 mi SW 16.1 mph 24.2 mph N/A   Unknown
11:55 AM 40.1 °F 30.5 °F 33.8 °F 78% 29.79 in 3.0 mi SW 20.7 mph 27.6 mph N/A   Haze
12:15 PM 41.0 °F 32.2 °F 33.8 °F 76% 29.79 in 3.0 mi SW 18.4 mph 25.3 mph N/A   Haze
12:35 PM 41.9 °F 32.6 °F 34.7 °F 76% 29.78 in 5.0 mi SW 21.9 mph 26.5 mph N/A   Haze
12:55 PM 43.2 °F 34.2 °F 35.1 °F 73% 29.78 in 5.0 mi SW 21.9 mph 28.8 mph N/A   Haze
1:15 PM 43.0 °F 34.5 °F 34.9 °F 73% 29.77 in 3.0 mi SW 19.6 mph 25.3 mph N/A   Unknown
1:35 PM 43.5 °F 34.7 °F 35.1 °F 72% 29.77 in 2.5 mi WSW 21.9 mph 28.8 mph N/A   Haze
1:55 PM 43.7 °F 34.7 °F 34.3 °F 70% 29.76 in 3.0 mi WSW 23.0 mph 28.8 mph N/A   Haze
2:15 PM 44.8 °F 36.6 °F 35.1 °F 69% 29.76 in 5.0 mi WSW 20.7 mph 24.2 mph N/A   Haze
2:35 PM 44.1 °F 35.4 °F 34.7 °F 70% 29.77 in 7.0 mi West 21.9 mph 27.6 mph N/A   Overcast
2:55 PM 43.0 °F 33.8 °F 34.2 °F 71% 29.78 in 3.0 mi WNW 23.0 mph 28.8 mph N/A   Haze
3:15 PM 42.3 °F 32.8 °F 33.8 °F 72% 29.79 in 4.0 mi West 23.0 mph 29.9 mph N/A   Haze
3:35 PM 42.6 °F 33.8 °F 34.2 °F 72% 29.80 in 7.0 mi West 20.7 mph 28.8 mph N/A   Scattered Clouds
3:55 PM 42.3 °F 33.1 °F 33.8 °F 72% 29.81 in 4.0 mi WNW 21.9 mph 28.8 mph N/A   Haze
4:15 PM 41.4 °F 30.9 °F 33.1 °F 72% 29.82 in 3.0 mi WNW 26.5 mph 32.2 mph N/A   Haze
4:35 PM 39.7 °F 29.0 °F 31.6 °F 73% 29.84 in 5.0 mi WNW 25.3 mph 32.2 mph N/A   Haze
4:55 PM 38.8 °F 29.4 °F 30.4 °F 72% 29.85 in 5.0 mi WNW 18.4 mph 28.8 mph N/A   Haze
5:15 PM 38.5 °F 29.2 °F 30.9 °F 74% 29.86 in 10.0 mi West 17.3 mph 25.3 mph N/A   Overcast
5:35 PM 38.3 °F 29.3 °F 31.1 °F 75% 29.88 in 7.0 mi West 16.1 mph 25.3 mph N/A   Overcast
5:55 PM 37.9 °F 28.2 °F 31.1 °F 76% 29.89 in 10.0 mi WNW 18.4 mph 23.0 mph N/A   Overcast
6:15 PM 37.8 °F 28.3 °F 29.8 °F 73% 29.89 in 10.0 mi West 17.3 mph 32.2 mph N/A   Overcast
6:35 PM 37.4 °F 28.5 °F 30.2 °F 75% 29.91 in 10.0 mi West 15.0 mph 21.9 mph N/A   Overcast
6:55 PM 37.4 °F 28.9 °F 30.6 °F 76% 29.92 in 5.0 mi West 13.8 mph - N/A Snow Light Snow
7:15 PM 37.4 °F 27.8 °F 30.6 °F 76% 29.93 in 4.0 mi WNW 17.3 mph 25.3 mph N/A Snow Light Snow
7:35 PM 37.0 °F 26.7 °F 30.0 °F 76% 29.94 in 5.0 mi West 19.6 mph 25.3 mph N/A   Haze
7:55 PM 37.0 °F 27.4 °F 28.2 °F 70% 29.94 in 4.0 mi WNW 17.3 mph 24.2 mph N/A Snow Light Snow
8:15 PM 36.5 °F 27.4 °F 28.4 °F 72% 29.95 in 7.0 mi West 15.0 mph - N/A   Overcast
8:35 PM 36.3 °F 27.5 °F 28.9 °F 75% 29.95 in 7.0 mi West 13.8 mph - N/A   Overcast
8:55 PM 36.5 °F 27.0 °F 29.3 °F 75% 29.95 in 4.0 mi West 16.1 mph 23.0 mph N/A Snow Light Snow
9:15 PM 36.5 °F 27.0 °F 29.5 °F 76% 29.96 in 5.0 mi West 16.1 mph 19.6 mph N/A   Haze
9:35 PM 36.5 °F 27.4 °F 28.9 °F 74% 29.96 in 10.0 mi West 15.0 mph - N/A   Overcast
9:55 PM 36.1 °F 26.9 °F 28.6 °F 74% 29.96 in 10.0 mi West 15.0 mph - N/A   Overcast
10:15 PM 36.0 °F 26.0 °F 28.4 °F 74% 29.96 in 10.0 mi West 17.3 mph - N/A   Overcast
10:35 PM 35.6 °F 26.6 °F 28.6 °F 76% 29.97 in 10.0 mi West 13.8 mph - N/A   Overcast
10:55 PM 35.2 °F 26.2 °F 29.1 °F 78% 29.97 in 10.0 mi West 13.8 mph - N/A   Overcast
11:15 PM 34.7 °F 26.4 °F 28.8 °F 79% 29.97 in 10.0 mi West 11.5 mph - N/A   Mostly Cloudy
11:35 PM 33.3 °F 26.4 °F 28.4 °F 82% 29.97 in 10.0 mi West 8.1 mph - N/A   Clear
11:55 PM 32.2 °F 25.0 °F 28.2 °F 85% 29.97 in 10.0 mi West 8.1 mph - N/A   Clear